| time (UTC) | temp C | wind direction | speed KPH | gust KPH | rain 1hr cm | rain 24hr cm | rain mn cm | humidity % | barometer mb |
| 20260906014537 | 27 | 136 | 8.0 | 17.7 | 0.00 | 0.00 | 0.00 | 51 | 1011.8 |
| 20260906013526 | 28 | 135 | 9.7 | 12.9 | 0.00 | 0.00 | 0.00 | 51 | 1011.7 |
| 20260906012527 | 28 | 118 | 9.7 | 25.7 | 0.00 | 0.00 | 0.00 | 50 | 1011.5 |
| 20260906011521 | 28 | 137 | 9.7 | 17.7 | 0.00 | 0.00 | 0.00 | 48 | 1011.3 |
| 20260906010516 | 30 | 133 | 9.7 | 22.5 | 0.00 | 0.00 | 0.00 | 46 | 1011.4 |
| 20260906005527 | 30 | 127 | 9.7 | 25.7 | 0.00 | 0.00 | 0.00 | 44 | 1011.3 |
| 20260906004522 | 30 | 119 | 12.9 | 22.5 | 0.00 | 0.00 | 0.00 | 43 | 1011.4 |
| 20260906003537 | 31 | 132 | 9.7 | 17.7 | 0.00 | 0.00 | 0.00 | 42 | 1011.2 |
| 20260906002527 | 32 | 122 | 14.5 | 25.7 | 0.00 | 0.00 | 0.00 | 36 | 1011.0 |
| 20260906001543 | 33 | 123 | 6.4 | 11.3 | 0.00 | 0.00 | 0.00 | 33 | 1010.9 |
| 20260906000518 | 33 | 113 | 8.0 | 14.5 | 0.00 | 0.00 | 0.00 | 32 | 1010.8 |
| 20260905235528 | 33 | 116 | 9.7 | 16.1 | 0.00 | 0.00 | 0.00 | 31 | 1010.8 |
| 20260905234523 | 35 | 101 | 9.7 | 16.1 | 0.00 | 0.00 | 0.00 | 30 | 1010.6 |
| 20260905233518 | 35 | 117 | 4.8 | 11.3 | 0.00 | 0.00 | 0.00 | 29 | 1010.6 |
| 20260905232548 | 35 | 129 | 1.6 | 4.8 | 0.00 | 0.00 | 0.00 | 28 | 1010.5 |
| 20260905231524 | 36 | 73 | 6.4 | 16.1 | 0.00 | 0.00 | 0.00 | 27 | 1010.6 |
| 20260905230519 | 36 | 119 | 3.2 | 9.7 | 0.00 | 0.00 | 0.00 | 26 | 1010.5 |
| 20260905225549 | 36 | 326 | 1.6 | 4.8 | 0.00 | 0.00 | 0.00 | 27 | 1010.4 |
| 20260905224524 | 36 | 135 | 3.2 | 6.4 | 0.00 | 0.00 | 0.00 | 26 | 1010.6 |
| 20260905223519 | 36 | 85 | 4.8 | 14.5 | 0.00 | 0.00 | 0.00 | 27 | 1010.5 |
| 20260905222529 | 36 | 155 | 1.6 | 9.7 | 0.00 | 0.00 | 0.00 | 26 | 1010.5 |
| 20260905221524 | 37 | 98 | 4.8 | 11.3 | 0.00 | 0.00 | 0.00 | 26 | 1010.4 |
| 20260905220539 | 36 | 100 | 3.2 | 11.3 | 0.00 | 0.00 | 0.00 | 28 | 1010.6 |
| 20260905215530 | 36 | 154 | 1.6 | 3.2 | 0.00 | 0.00 | 0.00 | 28 | 1010.8 |
| 20260905214525 | 37 | 150 | 1.6 | 6.4 | 0.00 | 0.00 | 0.00 | 27 | 1010.8 |
| 20260905213520 | 37 | 144 | 3.2 | 9.7 | 0.00 | 0.00 | 0.00 | 27 | 1010.9 |
| 20260905212530 | 37 | 109 | 3.2 | 9.7 | 0.00 | 0.00 | 0.00 | 27 | 1011.1 |
| 20260905211525 | 37 | 112 | 3.2 | 9.7 | 0.00 | 0.00 | 0.00 | 28 | 1011.3 |
| 20260905210520 | 36 | 178 | 3.2 | 11.3 | 0.00 | 0.00 | 0.00 | 28 | 1011.3 |
| 20260905205515 | 36 | 311 | 3.2 | 11.3 | 0.00 | 0.00 | 0.00 | 29 | 1011.4 |
| 20260905204606 | 36 | 265 | 1.6 | 4.8 | 0.00 | 0.00 | 0.00 | 30 | 1011.6 |
| 20260905203552 | 35 | 293 | 3.2 | 6.4 | 0.00 | 0.00 | 0.00 | 31 | 1011.7 |
| 20260905202515 | 36 | 297 | 3.2 | 6.4 | 0.00 | 0.00 | 0.00 | 29 | 1011.9 |
| 20260905201526 | 35 | 60 | 3.2 | 4.8 | 0.00 | 0.00 | 0.00 | 32 | 1012.0 |
| 20260905201049 | 34 | 144 | 1.6 | 3.2 | 0.00 | 0.00 | 0.00 | 32 | 1012.1 |
| 20260905200024 | 35 | 114 | 3.2 | 6.4 | 0.00 | 0.00 | 0.00 | 31 | 1012.3 |
| 20260905195020 | 35 | 138 | 1.6 | 4.8 | 0.00 | 0.00 | 0.00 | 31 | 1012.5 |
| 20260905194016 | 36 | 175 | 3.2 | 11.3 | 0.00 | 0.00 | 0.00 | 30 | 1012.6 |
| 20260905193026 | 37 | 160 | 3.2 | 9.7 | 0.00 | 0.00 | 0.00 | 28 | 1012.7 |
| 20260905192042 | 37 | 141 | 4.8 | 12.9 | 0.00 | 0.00 | 0.00 | 28 | 1012.8 |
| 20260905191017 | 36 | 117 | 3.2 | 9.7 | 0.00 | 0.00 | 0.00 | 30 | 1013.0 |
| 20260905190048 | 36 | 126 | 3.2 | 6.4 | 0.00 | 0.00 | 0.00 | 31 | 1013.2 |
| 20260905185023 | 34 | 247 | 4.8 | 6.4 | 0.00 | 0.00 | 0.00 | 33 | 1013.4 |
| 20260905184019 | 35 | 208 | 1.6 | 4.8 | 0.00 | 0.00 | 0.00 | 32 | 1013.7 |
| 20260905183029 | 36 | 146 | 3.2 | 9.7 | 0.00 | 0.00 | 0.00 | 30 | 1013.7 |
| 20260905182025 | 36 | 159 | 1.6 | 9.7 | 0.00 | 0.00 | 0.00 | 30 | 1013.9 |
| 20260905181020 | 36 | 103 | 4.8 | 12.9 | 0.00 | 0.00 | 0.00 | 31 | 1014.1 |
| 20260905180036 | 36 | 141 | 6.4 | 17.7 | 0.00 | 0.00 | 0.00 | 31 | 1014.2 |
| 20260905175025 | 35 | 153 | 3.2 | 6.4 | 0.00 | 0.00 | 0.00 | 32 | 1014.4 |
| 20260905174020 | 35 | 105 | 3.2 | 9.7 | 0.00 | 0.00 | 0.00 | 32 | 1014.5 |
| 20260905173116 | 35 | 128 | 3.2 | 9.7 | 0.00 | 0.00 | 0.00 | 32 | 1014.7 |
| 20260905172026 | 35 | 178 | 3.2 | 14.5 | 0.00 | 0.00 | 0.00 | 34 | 1014.7 |
| 20260905171022 | 35 | 143 | 4.8 | 12.9 | 0.00 | 0.00 | 0.00 | 32 | 1014.8 |
| 20260905170018 | 34 | 98 | 4.8 | 6.4 | 0.00 | 0.00 | 0.00 | 34 | 1015.0 |
| 20260905165028 | 34 | 139 | 3.2 | 11.3 | 0.00 | 0.00 | 0.00 | 35 | 1014.9 |
| 20260905164023 | 33 | 149 | 3.2 | 9.7 | 0.00 | 0.00 | 0.00 | 35 | 1015.0 |
| 20260905163018 | 33 | 157 | 1.6 | 9.7 | 0.00 | 0.00 | 0.00 | 36 | 1015.0 |
| 20260905162029 | 33 | 124 | 3.2 | 9.7 | 0.00 | 0.00 | 0.00 | 37 | 1015.0 |
| 20260905161024 | 32 | 263 | 1.6 | 3.2 | 0.00 | 0.00 | 0.00 | 40 | 1014.9 |
| 20260905160020 | 32 | 221 | 1.6 | 3.2 | 0.00 | 0.00 | 0.00 | 40 | 1014.9 |
| 20260905155016 | 31 | 229 | 1.6 | 6.4 | 0.00 | 0.00 | 0.00 | 42 | 1014.9 |
| 20260905154026 | 31 | 95 | 3.2 | 4.8 | 0.00 | 0.00 | 0.00 | 42 | 1014.8 |
| 20260905153042 | 31 | 153 | 3.2 | 6.4 | 0.00 | 0.00 | 0.00 | 43 | 1014.9 |
| 20260905152017 | 30 | 244 | 1.6 | 3.2 | 0.00 | 0.00 | 0.00 | 46 | 1014.9 |
| 20260905151028 | 29 | 184 | 3.2 | 6.4 | 0.00 | 0.00 | 0.00 | 48 | 1014.8 |
| 20260905150023 | 29 | 167 | 1.6 | 6.4 | 0.00 | 0.00 | 0.00 | 49 | 1014.8 |
| 20260905145019 | 28 | 178 | 1.6 | 4.8 | 0.00 | 0.00 | 0.00 | 52 | 1015.0 |
| 20260905144029 | 27 | 264 | 1.6 | 4.8 | 0.00 | 0.00 | 0.00 | 54 | 1014.9 |
| 20260905143025 | 27 | 151 | 1.6 | 4.8 | 0.00 | 0.00 | 0.00 | 56 | 1014.9 |
| 20260905142021 | 26 | 169 | 0.0 | 3.2 | 0.00 | 0.00 | 0.00 | 59 | 1014.8 |
| 20260905141016 | 26 | 161 | 3.2 | 9.7 | 0.00 | 0.00 | 0.00 | 61 | 1014.9 |
| 20260905140027 | 25 | 155 | 0.0 | 3.2 | 0.00 | 0.00 | 0.00 | 64 | 1014.7 |
| 20260905135043 | 24 | 149 | 1.6 | 6.4 | 0.00 | 0.00 | 0.00 | 66 | 1014.7 |
| 20260905134018 | 23 | 154 | 1.6 | 4.8 | 0.00 | 0.00 | 0.00 | 68 | 1014.7 |
| 20260905133049 | 22 | 168 | 1.6 | 4.8 | 0.00 | 0.00 | 0.00 | 70 | 1014.6 |
| 20260905132024 | 22 | 167 | 3.2 | 4.8 | 0.00 | 0.00 | 0.00 | 71 | 1014.5 |
| 20260905131527 | 22 | 168 | 1.6 | 4.8 | 0.00 | 0.00 | 0.00 | 71 | 1014.5 |
| 20260905130521 | 21 | 160 | 3.2 | 6.4 | 0.00 | 0.00 | 0.00 | 72 | 1014.2 |
| 20260905125516 | 21 | 157 | 3.2 | 6.4 | 0.00 | 0.00 | 0.00 | 72 | 1014.1 |
| 20260905124527 | 21 | 166 | 1.6 | 4.8 | 0.00 | 0.00 | 0.00 | 72 | 1014.2 |
| 20260905123521 | 21 | 171 | 1.6 | 3.2 | 0.00 | 0.00 | 0.00 | 73 | 1014.1 |
| 20260905122516 | 21 | 171 | 1.6 | 3.2 | 0.00 | 0.00 | 0.00 | 73 | 1014.1 |
| 20260905121526 | 21 | 172 | 0.0 | 1.6 | 0.00 | 0.00 | 0.00 | 73 | 1014.1 |
| 20260905120521 | 21 | 171 | 0.0 | 1.6 | 0.00 | 0.00 | 0.00 | 73 | 1014.0 |
| 20260905115516 | 21 | 0.0 | 0.0 | 0.00 | 0.00 | 0.00 | 73 | 1013.9 | |
| 20260905114526 | 21 | 0.0 | 0.0 | 0.00 | 0.00 | 0.00 | 72 | 1014.1 | |
| 20260905113521 | 21 | 171 | 0.0 | 1.6 | 0.00 | 0.00 | 0.00 | 72 | 1014.0 |
| 20260905112516 | 21 | 171 | 0.0 | 1.6 | 0.00 | 0.00 | 0.00 | 72 | 1013.9 |
| 20260905111526 | 21 | 171 | 0.0 | 1.6 | 0.00 | 0.00 | 0.00 | 72 | 1013.9 |
| 20260905110521 | 21 | 171 | 0.0 | 1.6 | 0.00 | 0.00 | 0.00 | 72 | 1013.9 |
| 20260905105516 | 21 | 0.0 | 0.0 | 0.00 | 0.00 | 0.00 | 72 | 1014.0 | |
| 20260905104526 | 21 | 171 | 0.0 | 1.6 | 0.00 | 0.00 | 0.00 | 70 | 1013.8 |
| 20260905103541 | 21 | 171 | 1.6 | 6.4 | 0.00 | 0.00 | 0.00 | 71 | 1013.7 |
| 20260905102516 | 21 | 159 | 1.6 | 3.2 | 0.00 | 0.00 | 0.00 | 70 | 1013.8 |
| 20260905101526 | 22 | 165 | 1.6 | 4.8 | 0.00 | 0.00 | 0.00 | 70 | 1013.8 |
| 20260905100521 | 22 | 165 | 0.0 | 3.2 | 0.00 | 0.00 | 0.00 | 69 | 1013.8 |
| 20260905095516 | 22 | 167 | 1.6 | 6.4 | 0.00 | 0.00 | 0.00 | 69 | 1013.8 |
| 20260905094526 | 22 | 172 | 1.6 | 4.8 | 0.00 | 0.00 | 0.00 | 69 | 1013.7 |
| 20260905093521 | 22 | 181 | 0.0 | 3.2 | 0.00 | 0.00 | 0.00 | 69 | 1013.7 |
| 20260905092516 | 22 | 167 | 1.6 | 4.8 | 0.00 | 0.00 | 0.00 | 68 | 1013.7 |
| 20260905091546 | 22 | 177 | 0.0 | 3.2 | 0.00 | 0.00 | 0.00 | 68 | 1013.6 |
| 20260905090521 | 22 | 0.0 | 0.0 | 0.00 | 0.00 | 0.00 | 68 | 1013.6 | |
| 20260905085536 | 22 | 0.0 | 0.0 | 0.00 | 0.00 | 0.00 | 68 | 1013.6 | |
| 20260905084526 | 22 | 172 | 0.0 | 3.2 | 0.00 | 0.00 | 0.00 | 67 | 1013.5 |
| 20260905083520 | 22 | 161 | 0.0 | 3.2 | 0.00 | 0.00 | 0.00 | 67 | 1013.4 |
| 20260905082515 | 23 | 186 | 0.0 | 3.2 | 0.00 | 0.00 | 0.00 | 66 | 1013.3 |
| 20260905081525 | 23 | 161 | 0.0 | 1.6 | 0.00 | 0.00 | 0.00 | 65 | 1013.4 |
| 20260905080520 | 23 | 171 | 1.6 | 4.8 | 0.00 | 0.00 | 0.00 | 65 | 1013.4 |
| 20260905075529 | 23 | 168 | 1.6 | 6.4 | 0.00 | 0.00 | 0.00 | 64 | 1013.4 |
| 20260905074545 | 23 | 175 | 1.6 | 4.8 | 0.00 | 0.00 | 0.00 | 64 | 1013.2 |
| 20260905073531 | 23 | 150 | 1.6 | 4.8 | 0.00 | 0.00 | 0.00 | 64 | 1013.3 |
| 20260905072528 | 23 | 173 | 3.2 | 6.4 | 0.00 | 0.00 | 0.00 | 63 | 1013.4 |
| 20260905071529 | 23 | 160 | 1.6 | 4.8 | 0.00 | 0.00 | 0.00 | 63 | 1013.6 |
| 20260905070525 | 23 | 160 | 1.6 | 6.4 | 0.00 | 0.00 | 0.00 | 62 | 1013.6 |
| 20260905065523 | 24 | 167 | 3.2 | 6.4 | 0.00 | 0.00 | 0.00 | 62 | 1013.8 |
| 20260905064547 | 24 | 178 | 1.6 | 4.8 | 0.00 | 0.00 | 0.00 | 61 | 1013.8 |
| 20260905063533 | 24 | 171 | 3.2 | 6.4 | 0.00 | 0.00 | 0.00 | 61 | 1013.8 |
| 20260905062540 | 24 | 174 | 3.2 | 6.4 | 0.00 | 0.00 | 0.00 | 60 | 1013.9 |
| 20260905061531 | 25 | 171 | 3.2 | 9.7 | 0.00 | 0.00 | 0.00 | 60 | 1013.9 |
| 20260905060554 | 25 | 174 | 3.2 | 9.7 | 0.00 | 0.00 | 0.00 | 59 | 1013.8 |
| 20260905055534 | 25 | 168 | 1.6 | 4.8 | 0.00 | 0.00 | 0.00 | 59 | 1013.8 |
| 20260905054517 | 25 | 168 | 3.2 | 9.7 | 0.00 | 0.00 | 0.00 | 58 | 1013.7 |
| 20260905053531 | 25 | 167 | 3.2 | 6.4 | 0.00 | 0.00 | 0.00 | 58 | 1013.7 |
| 20260905052527 | 25 | 158 | 1.6 | 6.4 | 0.00 | 0.00 | 0.00 | 57 | 1013.6 |
| 20260905051523 | 25 | 172 | 1.6 | 3.2 | 0.00 | 0.00 | 0.00 | 56 | 1013.5 |
| 20260905050552 | 25 | 165 | 3.2 | 9.7 | 0.00 | 0.00 | 0.00 | 56 | 1013.5 |
| 20260905045530 | 26 | 167 | 4.8 | 11.3 | 0.00 | 0.00 | 0.00 | 55 | 1013.4 |
| 20260905044530 | 26 | 161 | 3.2 | 9.7 | 0.00 | 0.00 | 0.00 | 54 | 1013.5 |
| 20260905043543 | 26 | 170 | 3.2 | 6.4 | 0.00 | 0.00 | 0.00 | 53 | 1013.5 |
| 20260905042519 | 26 | 170 | 6.4 | 11.3 | 0.00 | 0.00 | 0.00 | 53 | 1013.5 |
| 20260905041521 | 26 | 155 | 4.8 | 12.9 | 0.00 | 0.00 | 0.00 | 52 | 1013.4 |
| 20260905040539 | 26 | 171 | 6.4 | 14.5 | 0.00 | 0.00 | 0.00 | 52 | 1013.5 |
| 20260905035530 | 27 | 164 | 4.8 | 16.1 | 0.00 | 0.00 | 0.00 | 51 | 1013.6 |
| 20260905034524 | 27 | 157 | 3.2 | 11.3 | 0.00 | 0.00 | 0.00 | 50 | 1013.5 |
| 20260905033520 | 27 | 172 | 4.8 | 12.9 | 0.00 | 0.00 | 0.00 | 50 | 1013.6 |
| 20260905032517 | 27 | 161 | 4.8 | 12.9 | 0.00 | 0.00 | 0.00 | 49 | 1013.5 |
| 20260905031530 | 27 | 152 | 6.4 | 20.9 | 0.00 | 0.00 | 0.00 | 49 | 1013.5 |
| 20260905030517 | 27 | 169 | 4.8 | 11.3 | 0.00 | 0.00 | 0.00 | 48 | 1013.4 |
| 20260905025528 | 28 | 149 | 4.8 | 11.3 | 0.00 | 0.00 | 0.00 | 47 | 1013.2 |
| 20260905024544 | 28 | 157 | 4.8 | 17.7 | 0.00 | 0.00 | 0.00 | 47 | 1013.1 |
| 20260905023519 | 28 | 140 | 3.2 | 11.3 | 0.00 | 0.00 | 0.00 | 46 | 1013.0 |
| 20260905022530 | 28 | 125 | 4.8 | 14.5 | 0.00 | 0.00 | 0.00 | 45 | 1012.7 |
| 20260905021525 | 28 | 145 | 6.4 | 12.9 | 0.00 | 0.00 | 0.00 | 43 | 1012.5 |
| 20260905020520 | 28 | 135 | 4.8 | 9.7 | 0.00 | 0.00 | 0.00 | 41 | 1012.3 |
| 20260905015516 | 29 | 132 | 4.8 | 12.9 | 0.00 | 0.00 | 0.00 | 40 | 1012.2 |